| time (UTC) | temp C | wind direction | speed KPH | gust KPH | rain 1hr cm | rain 24hr cm | rain mn cm | humidity % | barometer mb |
| 20260506222816 | 30 | 75 | 6.4 | 19.3 | 0.00 | 0.00 | 0.00 | 84 | 1005.4 |
| 20260506222317 | 30 | 80 | 6.4 | 14.5 | 0.00 | 0.00 | 0.00 | 83 | 1005.3 |
| 20260506221819 | 30 | 95 | 8.0 | 17.7 | 0.00 | 0.00 | 0.00 | 82 | 1005.0 |
| 20260506221317 | 31 | 84 | 4.8 | 14.5 | 0.00 | 0.00 | 0.00 | 82 | 1005.1 |
| 20260506221312 | 30 | 73 | 6.4 | 17.7 | 0.00 | 0.00 | 0.00 | 83 | 1005.2 |
| 20260506220317 | 31 | 130 | 3.2 | 8.0 | 0.00 | 0.00 | 0.00 | 81 | 1005.2 |
| 20260506220312 | 31 | 109 | 3.2 | 8.0 | 0.00 | 0.00 | 0.00 | 82 | 1005.2 |
| 20260506215319 | 31 | 125 | 3.2 | 9.7 | 0.00 | 0.00 | 0.00 | 80 | 1005.2 |
| 20260506215312 | 31 | 82 | 3.2 | 8.0 | 0.00 | 0.00 | 0.00 | 81 | 1005.2 |
| 20260506214813 | 31 | 86 | 3.2 | 8.0 | 0.00 | 0.00 | 0.00 | 80 | 1005.1 |
| 20260506213818 | 31 | 124 | 3.2 | 9.7 | 0.00 | 0.00 | 0.00 | 80 | 1005.2 |
| 20260506213811 | 31 | 119 | 3.2 | 6.4 | 0.00 | 0.00 | 0.00 | 80 | 1005.2 |
| 20260506212812 | 31 | 119 | 1.6 | 4.8 | 0.00 | 0.00 | 0.00 | 80 | 1005.3 |
| 20260506212307 | 31 | 117 | 1.6 | 4.8 | 0.00 | 0.00 | 0.00 | 78 | 1005.3 |
| 20260506211805 | 31 | 116 | 0.0 | 0.0 | 0.00 | 0.00 | 0.00 | 79 | 1005.2 |
| 20260506211759 | 31 | 116 | 0.0 | 4.8 | 0.00 | 0.00 | 0.00 | 78 | 1005.2 |
| 20260506210740 | 31 | 116 | 0.0 | 0.0 | 0.00 | 0.00 | 0.00 | 80 | 1005.3 |
| 20260506210235 | 31 | 116 | 0.0 | 1.6 | 0.00 | 0.00 | 0.00 | 80 | 1005.3 |
| 20260506205732 | 31 | 116 | 0.0 | 1.6 | 0.00 | 0.00 | 0.00 | 79 | 1005.5 |
| 20260506205721 | 31 | 116 | 0.0 | 1.6 | 0.00 | 0.00 | 0.00 | 80 | 1005.6 |
| 20260506204716 | 31 | 116 | 0.0 | 6.4 | 0.00 | 0.00 | 0.00 | 82 | 1005.4 |
| 20260506204218 | 31 | 116 | 1.6 | 9.7 | 0.00 | 0.00 | 0.00 | 82 | 1005.6 |
| 20260506203717 | 31 | 121 | 3.2 | 9.7 | 0.00 | 0.00 | 0.00 | 82 | 1005.4 |
| 20260506203212 | 31 | 131 | 3.2 | 12.9 | 0.00 | 0.00 | 0.00 | 82 | 1005.5 |
| 20260506202713 | 31 | 221 | 3.2 | 12.9 | 0.00 | 0.00 | 0.00 | 82 | 1005.7 |
| 20260506202213 | 30 | 89 | 3.2 | 17.7 | 0.00 | 0.00 | 0.00 | 84 | 1005.7 |
| 20260506201713 | 30 | 144 | 6.4 | 17.7 | 0.00 | 0.00 | 0.00 | 85 | 1005.7 |
| 20260506201212 | 30 | 77 | 4.8 | 14.5 | 0.00 | 0.00 | 0.00 | 84 | 1006.0 |
| 20260506200713 | 30 | 117 | 4.8 | 11.3 | 0.00 | 0.00 | 0.00 | 84 | 1005.9 |
| 20260506200213 | 30 | 160 | 6.4 | 16.1 | 0.00 | 0.00 | 0.00 | 84 | 1005.8 |
| 20260506195714 | 30 | 197 | 6.4 | 16.1 | 0.00 | 0.00 | 0.00 | 84 | 1006.0 |
| 20260506195215 | 30 | 163 | 6.4 | 17.7 | 0.00 | 0.00 | 0.00 | 85 | 1006.3 |
| 20260506194707 | 30 | 153 | 6.4 | 20.9 | 0.00 | 0.00 | 0.00 | 85 | 1006.3 |
| 20260506194203 | 30 | 201 | 4.8 | 20.9 | 0.00 | 0.00 | 0.00 | 85 | 1006.3 |
| 20260506193701 | 29 | 94 | 4.8 | 11.3 | 0.00 | 0.00 | 0.00 | 87 | 1006.7 |
| 20260506193655 | 30 | 113 | 4.8 | 14.5 | 0.00 | 0.00 | 0.00 | 85 | 1006.6 |
| 20260506193155 | 29 | 186 | 4.8 | 14.5 | 0.00 | 0.00 | 0.00 | 86 | 1006.6 |
| 20260506192648 | 29 | 173 | 4.8 | 14.5 | 0.00 | 0.00 | 0.00 | 86 | 1006.7 |
| 20260506192306 | 28 | 123 | 4.8 | 11.3 | 0.00 | 0.00 | 0.00 | 87 | 1006.8 |
| 20260506191147 | 28 | 181 | 3.2 | 9.7 | 0.00 | 0.00 | 0.00 | 87 | 1006.6 |
| 20260506190646 | 28 | 127 | 4.8 | 9.7 | 0.00 | 0.00 | 0.00 | 88 | 1006.8 |
| 20260506190148 | 28 | 167 | 4.8 | 14.5 | 0.00 | 0.00 | 0.00 | 87 | 1006.9 |
| 20260506185648 | 28 | 134 | 4.8 | 12.9 | 0.00 | 0.00 | 0.00 | 88 | 1006.8 |
| 20260506185643 | 28 | 147 | 4.8 | 14.5 | 0.00 | 0.00 | 0.00 | 88 | 1006.9 |
| 20260506184639 | 28 | 167 | 4.8 | 12.9 | 0.00 | 0.00 | 0.00 | 88 | 1006.9 |
| 20260506184137 | 28 | 88 | 3.2 | 14.5 | 0.00 | 0.00 | 0.00 | 88 | 1006.9 |
| 20260506183630 | 28 | 65 | 3.2 | 14.5 | 0.00 | 0.00 | 0.00 | 89 | 1006.9 |
| 20260506183131 | 28 | 182 | 3.2 | 8.0 | 0.00 | 0.00 | 0.00 | 90 | 1007.0 |
| 20260506182629 | 28 | 160 | 3.2 | 9.7 | 0.00 | 0.00 | 0.00 | 89 | 1007.1 |
| 20260506182119 | 27 | 89 | 3.2 | 9.7 | 0.00 | 0.00 | 0.00 | 89 | 1007.2 |
| 20260506181620 | 27 | 123 | 3.2 | 8.0 | 0.00 | 0.00 | 0.00 | 90 | 1007.3 |
| 20260506181117 | 27 | 92 | 3.2 | 8.0 | 0.00 | 0.00 | 0.00 | 90 | 1007.3 |
| 20260506180616 | 27 | 162 | 1.6 | 4.8 | 0.00 | 0.00 | 0.00 | 90 | 1007.4 |
| 20260506180114 | 27 | 169 | 3.2 | 9.7 | 0.00 | 0.00 | 0.00 | 90 | 1007.4 |
| 20260506175614 | 27 | 182 | 3.2 | 9.7 | 0.00 | 0.00 | 0.00 | 90 | 1007.5 |
| 20260506175114 | 27 | 169 | 4.8 | 14.5 | 0.00 | 0.00 | 0.00 | 89 | 1007.5 |
| 20260506174608 | 27 | 205 | 4.8 | 14.5 | 0.00 | 0.00 | 0.00 | 89 | 1007.5 |
| 20260506174109 | 27 | 143 | 3.2 | 9.7 | 0.00 | 0.00 | 0.00 | 90 | 1007.5 |
| 20260506173609 | 27 | 155 | 3.2 | 8.0 | 0.00 | 0.00 | 0.00 | 91 | 1007.6 |
| 20260506173110 | 27 | 168 | 4.8 | 16.1 | 0.00 | 0.00 | 0.00 | 90 | 1007.6 |
| 20260506173106 | 27 | 135 | 3.2 | 8.0 | 0.00 | 0.00 | 0.00 | 92 | 1007.6 |
| 20260506172726 | 27 | 198 | 3.2 | 9.7 | 0.00 | 0.00 | 0.00 | 90 | 1007.6 |
| 20260506172604 | 27 | 141 | 3.2 | 16.1 | 0.00 | 0.00 | 0.00 | 91 | 1007.5 |
| 20260506171602 | 27 | 169 | 3.2 | 9.7 | 0.00 | 0.00 | 0.00 | 90 | 1007.6 |
| 20260506170602 | 27 | 160 | 3.2 | 9.7 | 0.00 | 0.00 | 0.00 | 90 | 1007.5 |
| 20260506170101 | 27 | 164 | 4.8 | 9.7 | 0.00 | 0.00 | 0.00 | 91 | 1007.6 |
| 20260506165600 | 27 | 146 | 3.2 | 9.7 | 0.00 | 0.00 | 0.00 | 91 | 1007.6 |
| 20260506165059 | 27 | 105 | 3.2 | 6.4 | 0.00 | 0.00 | 0.00 | 91 | 1007.6 |
| 20260506164558 | 27 | 77 | 3.2 | 6.4 | 0.00 | 0.00 | 0.00 | 91 | 1007.5 |
| 20260506164059 | 27 | 77 | 3.2 | 8.0 | 0.00 | 0.00 | 0.00 | 90 | 1007.5 |
| 20260506163559 | 27 | 76 | 3.2 | 8.0 | 0.00 | 0.00 | 0.00 | 90 | 1007.5 |
| 20260506163058 | 27 | 134 | 1.6 | 6.4 | 0.00 | 0.00 | 0.00 | 90 | 1007.5 |
| 20260506163053 | 27 | 126 | 3.2 | 6.4 | 0.00 | 0.00 | 0.00 | 91 | 1007.5 |
| 20260506162051 | 27 | 128 | 3.2 | 6.4 | 0.00 | 0.00 | 0.00 | 91 | 1007.4 |
| 20260506161553 | 27 | 131 | 3.2 | 8.0 | 0.00 | 0.00 | 0.00 | 91 | 1007.3 |
| 20260506161055 | 26 | 94 | 3.2 | 9.7 | 0.00 | 0.00 | 0.00 | 91 | 1007.3 |
| 20260506161048 | 26 | 140 | 1.6 | 8.0 | 0.00 | 0.00 | 0.00 | 91 | 1007.2 |
| 20260506160210 | 26 | 117 | 3.2 | 8.0 | 0.00 | 0.00 | 0.00 | 92 | 1006.9 |
| 20260506160049 | 26 | 94 | 3.2 | 9.7 | 0.00 | 0.00 | 0.00 | 91 | 1007.1 |
| 20260506155550 | 26 | 88 | 3.2 | 11.3 | 0.00 | 0.00 | 0.00 | 91 | 1006.9 |
| 20260506155546 | 26 | 88 | 3.2 | 9.7 | 0.00 | 0.00 | 0.00 | 91 | 1006.9 |
| 20260506155203 | 26 | 92 | 3.2 | 11.3 | 0.00 | 0.00 | 0.00 | 91 | 1006.8 |
| 20260506153548 | 26 | 82 | 3.2 | 8.0 | 0.00 | 0.00 | 0.00 | 92 | 1006.9 |
| 20260506153046 | 26 | 88 | 3.2 | 11.3 | 0.00 | 0.00 | 0.00 | 92 | 1006.8 |
| 20260506152547 | 26 | 91 | 3.2 | 11.3 | 0.00 | 0.00 | 0.00 | 92 | 1006.8 |
| 20260506152045 | 26 | 100 | 3.2 | 8.0 | 0.00 | 0.00 | 0.00 | 93 | 1006.8 |
| 20260506151547 | 26 | 95 | 4.8 | 9.7 | 0.00 | 0.00 | 0.00 | 93 | 1006.6 |
| 20260506151047 | 26 | 98 | 4.8 | 9.7 | 0.00 | 0.00 | 0.00 | 94 | 1006.7 |
| 20260506150548 | 26 | 96 | 3.2 | 8.0 | 0.00 | 0.00 | 0.00 | 94 | 1006.5 |
| 20260506150541 | 26 | 97 | 3.2 | 8.0 | 0.00 | 0.00 | 0.00 | 94 | 1006.6 |
| 20260506150044 | 26 | 103 | 3.2 | 8.0 | 0.00 | 0.00 | 0.00 | 94 | 1006.5 |
| 20260506145048 | 25 | 88 | 3.2 | 8.0 | 0.00 | 0.00 | 0.00 | 95 | 1006.4 |
| 20260506145042 | 26 | 98 | 3.2 | 8.0 | 0.00 | 0.00 | 0.00 | 94 | 1006.5 |
| 20260506144039 | 25 | 80 | 3.2 | 8.0 | 0.00 | 0.00 | 0.00 | 95 | 1006.4 |
| 20260506143537 | 25 | 80 | 4.8 | 9.7 | 0.00 | 0.00 | 0.00 | 95 | 1006.3 |
| 20260506143037 | 25 | 101 | 3.2 | 8.0 | 0.00 | 0.00 | 0.00 | 95 | 1006.2 |
| 20260506143030 | 25 | 121 | 3.2 | 9.7 | 0.00 | 0.00 | 0.00 | 95 | 1006.2 |
| 20260506142027 | 25 | 105 | 3.2 | 9.7 | 0.00 | 0.00 | 0.00 | 95 | 1006.2 |
| 20260506141527 | 25 | 76 | 4.8 | 9.7 | 0.00 | 0.00 | 0.00 | 95 | 1006.4 |
| 20260506141027 | 25 | 76 | 3.2 | 8.0 | 0.00 | 0.00 | 0.00 | 95 | 1006.4 |
| 20260506140525 | 25 | 79 | 3.2 | 8.0 | 0.00 | 0.00 | 0.00 | 95 | 1006.1 |
| 20260506140023 | 25 | 84 | 3.2 | 8.0 | 0.00 | 0.00 | 0.00 | 95 | 1006.1 |
| 20260506135516 | 25 | 78 | 3.2 | 6.4 | 0.00 | 0.00 | 0.00 | 95 | 1006.2 |
| 20260506135510 | 25 | 78 | 3.2 | 6.4 | 0.00 | 0.00 | 0.00 | 95 | 1006.2 |
| 20260506134509 | 25 | 78 | 3.2 | 6.4 | 0.00 | 0.00 | 0.00 | 95 | 1006.1 |
| 20260506134008 | 25 | 78 | 3.2 | 6.4 | 0.00 | 0.00 | 0.00 | 95 | 1006.2 |
| 20260506133507 | 25 | 78 | 1.6 | 6.4 | 0.00 | 0.00 | 0.00 | 95 | 1006.4 |
| 20260506133002 | 25 | 78 | 1.6 | 6.4 | 0.00 | 0.00 | 0.00 | 95 | 1006.3 |
| 20260506132503 | 25 | 78 | 3.2 | 6.4 | 0.00 | 0.00 | 0.00 | 95 | 1006.3 |
| 20260506132003 | 25 | 78 | 3.2 | 8.0 | 0.00 | 0.00 | 0.00 | 95 | 1006.3 |
| 20260506131459 | 25 | 78 | 3.2 | 8.0 | 0.00 | 0.00 | 0.00 | 95 | 1006.3 |
| 20260506130959 | 25 | 80 | 1.6 | 8.0 | 0.00 | 0.00 | 0.00 | 95 | 1006.3 |
| 20260506130457 | 25 | 80 | 3.2 | 8.0 | 0.00 | 0.00 | 0.00 | 95 | 1006.3 |
| 20260506130004 | 25 | 82 | 1.6 | 4.8 | 0.00 | 0.00 | 0.00 | 95 | 1006.1 |
| 20260506125957 | 25 | 81 | 1.6 | 4.8 | 0.00 | 0.00 | 0.00 | 95 | 1006.2 |
| 20260506125456 | 25 | 82 | 3.2 | 6.4 | 0.00 | 0.00 | 0.00 | 95 | 1006.1 |
| 20260506124956 | 25 | 81 | 3.2 | 6.4 | 0.00 | 0.00 | 0.00 | 95 | 1006.1 |
| 20260506123954 | 25 | 82 | 3.2 | 9.7 | 0.00 | 0.00 | 0.00 | 95 | 1006.1 |
| 20260506123450 | 25 | 82 | 3.2 | 9.7 | 0.00 | 0.00 | 0.00 | 95 | 1006.1 |
| 20260506122947 | 25 | 201 | 1.6 | 6.4 | 0.00 | 0.00 | 0.00 | 95 | 1006.0 |
| 20260506122450 | 25 | 126 | 1.6 | 6.4 | 0.00 | 0.00 | 0.00 | 95 | 1006.2 |
| 20260506121944 | 25 | 126 | 1.6 | 3.2 | 0.00 | 0.00 | 0.00 | 95 | 1006.2 |
| 20260506121445 | 25 | 126 | 1.6 | 4.8 | 0.00 | 0.00 | 0.00 | 95 | 1006.2 |
| 20260506120942 | 25 | 126 | 1.6 | 4.8 | 0.00 | 0.00 | 0.00 | 95 | 1006.0 |
| 20260506120440 | 25 | 126 | 1.6 | 4.8 | 0.00 | 0.00 | 0.00 | 95 | 1006.0 |
| 20260506115941 | 25 | 126 | 1.6 | 3.2 | 0.00 | 0.00 | 0.00 | 95 | 1006.1 |
| 20260506115441 | 25 | 126 | 1.6 | 4.8 | 0.00 | 0.00 | 0.00 | 95 | 1006.0 |
| 20260506114925 | 25 | 126 | 1.6 | 4.8 | 0.00 | 0.00 | 0.00 | 95 | 1006.0 |
| 20260506114422 | 25 | 126 | 1.6 | 4.8 | 0.00 | 0.00 | 0.00 | 95 | 1005.9 |
| 20260506113924 | 25 | 126 | 1.6 | 4.8 | 0.00 | 0.00 | 0.00 | 95 | 1006.0 |
| 20260506113422 | 25 | 126 | 1.6 | 4.8 | 0.00 | 0.00 | 0.00 | 95 | 1005.8 |
| 20260506112911 | 25 | 126 | 1.6 | 6.4 | 0.00 | 0.00 | 0.00 | 95 | 1005.7 |
| 20260506112408 | 25 | 126 | 1.6 | 6.4 | 0.00 | 0.00 | 0.00 | 95 | 1005.7 |
| 20260506111907 | 25 | 126 | 1.6 | 4.8 | 0.00 | 0.00 | 0.00 | 95 | 1005.6 |
| 20260506111408 | 25 | 126 | 1.6 | 4.8 | 0.00 | 0.00 | 0.00 | 95 | 1005.6 |
| 20260506110904 | 25 | 126 | 1.6 | 8.0 | 0.00 | 0.00 | 0.00 | 95 | 1005.6 |
| 20260506110405 | 25 | 126 | 1.6 | 8.0 | 0.00 | 0.00 | 0.00 | 95 | 1005.6 |
| 20260506105904 | 25 | 129 | 1.6 | 6.4 | 0.00 | 0.00 | 0.00 | 95 | 1005.6 |
| 20260506105403 | 25 | 128 | 1.6 | 8.0 | 0.00 | 0.00 | 0.00 | 95 | 1005.6 |
| 20260506104903 | 25 | 128 | 1.6 | 8.0 | 0.00 | 0.00 | 0.00 | 95 | 1005.6 |
| 20260506104404 | 25 | 129 | 1.6 | 4.8 | 0.00 | 0.00 | 0.00 | 95 | 1005.6 |
| 20260506103904 | 25 | 128 | 1.6 | 6.4 | 0.00 | 0.00 | 0.00 | 95 | 1005.5 |
| 20260506103402 | 25 | 128 | 1.6 | 6.4 | 0.00 | 0.00 | 0.00 | 95 | 1005.5 |
| 20260506102903 | 25 | 128 | 1.6 | 6.4 | 0.00 | 0.00 | 0.00 | 95 | 1005.6 |
| 20260506102403 | 25 | 128 | 1.6 | 6.4 | 0.00 | 0.00 | 0.00 | 94 | 1005.7 |
| 20260506101902 | 25 | 128 | 1.6 | 3.2 | 0.00 | 0.00 | 0.00 | 94 | 1005.7 |
| 20260506101403 | 25 | 128 | 1.6 | 3.2 | 0.00 | 0.00 | 0.00 | 94 | 1005.6 |
| 20260506100901 | 25 | 128 | 1.6 | 4.8 | 0.00 | 0.00 | 0.00 | 94 | 1005.5 |
| 20260506100404 | 25 | 128 | 1.6 | 4.8 | 0.00 | 0.00 | 0.00 | 94 | 1005.5 |
| 20260506100400 | 25 | 128 | 1.6 | 4.8 | 0.00 | 0.00 | 0.00 | 94 | 1005.6 |
| 20260506095401 | 25 | 128 | 1.6 | 4.8 | 0.00 | 0.00 | 0.00 | 94 | 1005.6 |
| 20260506094854 | 25 | 128 | 1.6 | 4.8 | 0.00 | 0.00 | 0.00 | 94 | 1005.6 |
| 20260506094351 | 25 | 128 | 1.6 | 4.8 | 0.00 | 0.00 | 0.00 | 94 | 1005.4 |
| 20260506093845 | 25 | 128 | 1.6 | 6.4 | 0.00 | 0.00 | 0.00 | 94 | 1005.5 |
| 20260506093345 | 25 | 128 | 1.6 | 6.4 | 0.00 | 0.00 | 0.00 | 94 | 1005.5 |
| 20260506093340 | 25 | 128 | 1.6 | 4.8 | 0.00 | 0.00 | 0.00 | 94 | 1005.5 |
| 20260506092338 | 25 | 128 | 1.6 | 4.8 | 0.00 | 0.00 | 0.00 | 94 | 1005.6 |
| 20260506091838 | 25 | 128 | 1.6 | 4.8 | 0.00 | 0.00 | 0.00 | 94 | 1005.6 |
| 20260506091801 | 25 | 128 | 1.6 | 4.8 | 0.00 | 0.00 | 0.00 | 94 | 1005.7 |
| 20260506091405 | 25 | 128 | 0.0 | 4.8 | 0.00 | 0.00 | 0.00 | 94 | 1005.6 |
| 20260506090231 | 25 | 128 | 1.6 | 4.8 | 0.00 | 0.00 | 0.00 | 94 | 1005.6 |
| 20260506085731 | 25 | 128 | 1.6 | 4.8 | 0.00 | 0.00 | 0.00 | 94 | 1005.4 |
| 20260506085211 | 25 | 128 | 1.6 | 4.8 | 0.00 | 0.00 | 0.00 | 93 | 1005.2 |
| 20260506084714 | 25 | 129 | 1.6 | 4.8 | 0.00 | 0.00 | 0.00 | 93 | 1005.6 |
| 20260506084710 | 25 | 129 | 1.6 | 4.8 | 0.00 | 0.00 | 0.00 | 93 | 1005.5 |
| 20260506083709 | 25 | 128 | 1.6 | 6.4 | 0.00 | 0.00 | 0.00 | 93 | 1005.5 |
| 20260506083209 | 25 | 128 | 1.6 | 6.4 | 0.00 | 0.00 | 0.00 | 93 | 1005.4 |
| 20260506082704 | 25 | 126 | 1.6 | 6.4 | 0.00 | 0.00 | 0.00 | 93 | 1005.5 |
| 20260506082200 | 25 | 126 | 1.6 | 8.0 | 0.00 | 0.00 | 0.00 | 93 | 1005.4 |
| 20260506081703 | 25 | 121 | 1.6 | 4.8 | 0.00 | 0.00 | 0.00 | 93 | 1005.5 |
| 20260506081659 | 25 | 121 | 1.6 | 8.0 | 0.00 | 0.00 | 0.00 | 93 | 1005.5 |
| 20260506080657 | 25 | 121 | 1.6 | 4.8 | 0.00 | 0.00 | 0.00 | 92 | 1005.6 |
| 20260506080156 | 25 | 121 | 1.6 | 8.0 | 0.00 | 0.00 | 0.00 | 92 | 1005.7 |
| 20260506073129 | 25 | 115 | 1.6 | 6.4 | 0.00 | 0.00 | 0.00 | 92 | 1005.8 |
| 20260506072621 | 25 | 111 | 1.6 | 6.4 | 0.00 | 0.00 | 0.00 | 92 | 1005.9 |
| 20260506072115 | 25 | 109 | 3.2 | 6.4 | 0.00 | 0.00 | 0.00 | 92 | 1005.9 |
| 20260506071609 | 25 | 152 | 3.2 | 6.4 | 0.00 | 0.00 | 0.00 | 92 | 1006.0 |
| 20260506071107 | 25 | 153 | 3.2 | 8.0 | 0.00 | 0.00 | 0.00 | 92 | 1006.0 |
| 20260506070610 | 25 | 111 | 3.2 | 8.0 | 0.00 | 0.00 | 0.00 | 92 | 1006.2 |
| 20260506070109 | 25 | 107 | 3.2 | 8.0 | 0.00 | 0.00 | 0.00 | 92 | 1006.1 |
| 20260506062053 | 25 | 165 | 3.2 | 8.0 | 0.00 | 0.00 | 0.00 | 92 | 1006.5 |
| 20260506061709 | 25 | 165 | 3.2 | 11.3 | 0.00 | 0.00 | 0.00 | 92 | 1006.7 |
| 20260506061051 | 25 | 165 | 1.6 | 4.8 | 0.00 | 0.00 | 0.00 | 92 | 1006.6 |
| 20260506051024 | 26 | 205 | 4.8 | 17.7 | 0.00 | 0.00 | 0.00 | 91 | 1006.4 |
| 20260506050525 | 26 | 151 | 6.4 | 17.7 | 0.00 | 0.00 | 0.00 | 91 | 1006.3 |
| 20260506045017 | 26 | 178 | 4.8 | 17.7 | 0.00 | 0.00 | 0.00 | 91 | 1006.1 |
| 20260506044517 | 26 | 119 | 4.8 | 17.7 | 0.00 | 0.00 | 0.00 | 91 | 1006.2 |
| 20260506044024 | 26 | 164 | 4.8 | 12.9 | 0.00 | 0.00 | 0.00 | 91 | 1006.1 |
| 20260506044018 | 26 | 163 | 4.8 | 16.1 | 0.00 | 0.00 | 0.00 | 91 | 1006.2 |
| 20260506043013 | 26 | 140 | 3.2 | 9.7 | 0.00 | 0.00 | 0.00 | 91 | 1006.0 |
| 20260506042515 | 26 | 146 | 4.8 | 14.5 | 0.00 | 0.00 | 0.00 | 91 | 1005.9 |
| 20260506042511 | 26 | 173 | 4.8 | 14.5 | 0.00 | 0.00 | 0.00 | 91 | 1005.9 |
| 20260506042129 | 26 | 135 | 3.2 | 11.3 | 0.00 | 0.00 | 0.00 | 91 | 1005.9 |
| 20260506041511 | 26 | 124 | 3.2 | 11.3 | 0.00 | 0.00 | 0.00 | 91 | 1005.8 |
| 20260506041005 | 26 | 142 | 3.2 | 8.0 | 0.00 | 0.00 | 0.00 | 91 | 1006.0 |
| 20260506040002 | 26 | 156 | 4.8 | 11.3 | 0.00 | 0.00 | 0.00 | 91 | 1005.8 |
| 20260506035504 | 26 | 184 | 4.8 | 14.5 | 0.00 | 0.00 | 0.00 | 91 | 1005.8 |
| 20260506035003 | 26 | 142 | 4.8 | 14.5 | 0.00 | 0.00 | 0.00 | 91 | 1005.9 |
| 20260506034503 | 26 | 179 | 4.8 | 12.9 | 0.00 | 0.00 | 0.00 | 91 | 1005.7 |
| 20260506034003 | 26 | 158 | 4.8 | 11.3 | 0.00 | 0.00 | 0.00 | 91 | 1005.6 |
| 20260506033458 | 26 | 140 | 4.8 | 11.3 | 0.00 | 0.00 | 0.00 | 91 | 1005.7 |
| 20260506032958 | 26 | 147 | 4.8 | 11.3 | 0.00 | 0.00 | 0.00 | 91 | 1005.7 |
| 20260506032501 | 26 | 150 | 4.8 | 14.5 | 0.00 | 0.00 | 0.00 | 91 | 1005.6 |
| 20260506032000 | 26 | 158 | 4.8 | 14.5 | 0.00 | 0.00 | 0.00 | 91 | 1005.6 |
| 20260506031458 | 26 | 166 | 4.8 | 11.3 | 0.00 | 0.00 | 0.00 | 91 | 1005.7 |
| 20260506030959 | 26 | 136 | 4.8 | 14.5 | 0.00 | 0.00 | 0.00 | 91 | 1005.7 |
| 20260506030446 | 26 | 147 | 4.8 | 16.1 | 0.00 | 0.00 | 0.00 | 91 | 1005.6 |
| 20260506025947 | 26 | 171 | 4.8 | 16.1 | 0.00 | 0.00 | 0.00 | 91 | 1005.6 |
| 20260506025444 | 26 | 151 | 4.8 | 11.3 | 0.00 | 0.00 | 0.00 | 91 | 1005.6 |
| 20260506024943 | 26 | 140 | 4.8 | 11.3 | 0.00 | 0.00 | 0.00 | 91 | 1005.4 |
| 20260506024439 | 26 | 126 | 4.8 | 12.9 | 0.00 | 0.00 | 0.00 | 91 | 1005.2 |
| 20260506023944 | 26 | 168 | 4.8 | 16.1 | 0.00 | 0.00 | 0.00 | 91 | 1005.2 |
| 20260506023939 | 26 | 81 | 4.8 | 12.9 | 0.00 | 0.00 | 0.00 | 91 | 1005.3 |
| 20260506022936 | 26 | 172 | 4.8 | 16.1 | 0.00 | 0.00 | 0.00 | 91 | 1005.0 |
| 20260506022441 | 26 | 169 | 4.8 | 19.3 | 0.00 | 0.00 | 0.00 | 90 | 1004.9 |
| 20260506022437 | 26 | 169 | 3.2 | 19.3 | 0.00 | 0.00 | 0.00 | 90 | 1005.0 |
| 20260506021436 | 26 | 136 | 3.2 | 9.7 | 0.00 | 0.00 | 0.00 | 90 | 1004.9 |
| 20260506021430 | 26 | 177 | 3.2 | 14.5 | 0.00 | 0.00 | 0.00 | 90 | 1004.9 |
| 20260506021044 | 26 | 119 | 4.8 | 14.5 | 0.00 | 0.00 | 0.00 | 90 | 1004.9 |
| 20260506015929 | 26 | 161 | 4.8 | 17.7 | 0.00 | 0.00 | 0.00 | 90 | 1004.7 |
| 20260506015429 | 26 | 171 | 4.8 | 17.7 | 0.00 | 0.00 | 0.00 | 90 | 1004.8 |
| 20260506014928 | 26 | 134 | 4.8 | 14.5 | 0.00 | 0.00 | 0.00 | 90 | 1004.6 |
| 20260506014429 | 26 | 161 | 6.4 | 17.7 | 0.00 | 0.00 | 0.00 | 90 | 1004.6 |
| 20260506013922 | 26 | 161 | 6.4 | 17.7 | 0.00 | 0.00 | 0.00 | 89 | 1004.5 |
| 20260506013428 | 26 | 173 | 8.0 | 19.3 | 0.00 | 0.00 | 0.00 | 89 | 1004.5 |
| 20260506013423 | 26 | 202 | 6.4 | 17.7 | 0.00 | 0.00 | 0.00 | 89 | 1004.5 |
| 20260506013042 | 26 | 116 | 6.4 | 17.7 | 0.00 | 0.00 | 0.00 | 89 | 1004.4 |
| 20260506012423 | 26 | 182 | 8.0 | 19.3 | 0.00 | 0.00 | 0.00 | 89 | 1004.5 |
| 20260506011425 | 26 | 169 | 6.4 | 20.9 | 0.00 | 0.00 | 0.00 | 89 | 1004.3 |
| 20260506011418 | 26 | 182 | 8.0 | 20.9 | 0.00 | 0.00 | 0.00 | 89 | 1004.4 |
| 20260506010418 | 26 | 151 | 4.8 | 14.5 | 0.00 | 0.00 | 0.00 | 89 | 1004.2 |
| 20260506005924 | 26 | 123 | 4.8 | 14.5 | 0.00 | 0.00 | 0.00 | 89 | 1004.1 |
| 20260506005919 | 26 | 167 | 4.8 | 11.3 | 0.00 | 0.00 | 0.00 | 89 | 1004.2 |
| 20260506004912 | 26 | 174 | 6.4 | 16.1 | 0.00 | 0.00 | 0.00 | 88 | 1004.2 |
| 20260506004419 | 26 | 202 | 6.4 | 17.7 | 0.00 | 0.00 | 0.00 | 88 | 1003.9 |
| 20260506004413 | 26 | 175 | 4.8 | 16.1 | 0.00 | 0.00 | 0.00 | 88 | 1004.1 |
| 20260506004028 | 26 | 155 | 4.8 | 16.1 | 0.00 | 0.00 | 0.00 | 88 | 1003.8 |
| 20260506003906 | 26 | 171 | 6.4 | 17.7 | 0.00 | 0.00 | 0.00 | 88 | 1003.8 |
| 20260506002406 | 27 | 134 | 6.4 | 16.1 | 0.00 | 0.00 | 0.00 | 87 | 1003.9 |
| 20260506001901 | 27 | 78 | 6.4 | 20.9 | 0.00 | 0.00 | 0.00 | 87 | 1003.9 |
| 20260506001401 | 27 | 159 | 4.8 | 20.9 | 0.00 | 0.00 | 0.00 | 87 | 1003.8 |
| 20260506000902 | 27 | 168 | 4.8 | 14.5 | 0.00 | 0.00 | 0.00 | 87 | 1003.8 |
| 20260506000402 | 27 | 123 | 6.4 | 22.5 | 0.00 | 0.00 | 0.00 | 87 | 1003.7 |
| 20260505235906 | 27 | 119 | 8.0 | 20.9 | 0.00 | 0.00 | 0.00 | 87 | 1003.7 |
| 20260505235902 | 27 | 123 | 8.0 | 22.5 | 0.00 | 0.00 | 0.00 | 87 | 1003.6 |
| 20260505234859 | 27 | 143 | 8.0 | 20.9 | 0.00 | 0.00 | 0.00 | 87 | 1003.7 |
| 20260505234401 | 27 | 171 | 8.0 | 19.3 | 0.00 | 0.00 | 0.00 | 87 | 1003.7 |
| 20260505233902 | 27 | 53 | 8.0 | 22.5 | 0.00 | 0.00 | 0.00 | 87 | 1003.6 |
| 20260505233400 | 27 | 130 | 8.0 | 22.5 | 0.00 | 0.00 | 0.00 | 86 | 1003.7 |
| 20260505232859 | 27 | 108 | 6.4 | 20.9 | 0.00 | 0.00 | 0.00 | 86 | 1003.8 |
| 20260505232400 | 27 | 180 | 4.8 | 16.1 | 0.00 | 0.00 | 0.00 | 86 | 1003.8 |
| 20260505232355 | 27 | 163 | 4.8 | 12.9 | 0.00 | 0.00 | 0.00 | 86 | 1003.8 |
| 20260505231355 | 27 | 161 | 6.4 | 16.1 | 0.00 | 0.00 | 0.00 | 87 | 1003.7 |
| 20260505230853 | 27 | 167 | 6.4 | 16.1 | 0.00 | 0.00 | 0.00 | 87 | 1003.8 |
| 20260505230355 | 27 | 157 | 4.8 | 14.5 | 0.00 | 0.00 | 0.00 | 86 | 1003.8 |
| 20260505225855 | 27 | 162 | 6.4 | 20.9 | 0.00 | 0.00 | 0.00 | 86 | 1003.7 |
| 20260505225850 | 27 | 179 | 6.4 | 16.1 | 0.00 | 0.00 | 0.00 | 87 | 1003.9 |
| 20260505224851 | 27 | 93 | 6.4 | 20.9 | 0.00 | 0.00 | 0.00 | 86 | 1004.0 |
| 20260505224349 | 27 | 153 | 6.4 | 19.3 | 0.00 | 0.00 | 0.00 | 86 | 1004.1 |
| 20260505223851 | 27 | 197 | 6.4 | 19.3 | 0.00 | 0.00 | 0.00 | 86 | 1004.2 |
| 20260505223351 | 27 | 153 | 6.4 | 16.1 | 0.00 | 0.00 | 0.00 | 86 | 1004.3 |